When you browse on this site, cookies collect data to enhance your experience and personalize the content and advertising you see.
Visit our Privacy Policy to learn more. By continuing to use the site, you agree to this use of cookies and data.
  • în România
  • Lista ţărilor
  • Pe 7 zile
  • Temperatura apei
  • Hartă satelitară
  • Meteo pe hartă
  • Widget-uri
  • user-avatar
    Intrare

    Meteo pe oră la Madang

    Astăzi, 25 Mai, Sâmbătă

    Timp Temperatura Precipitaţii Vânt Presiune Umiditate
    00:00 +27°C° 0 mm 1 m/s 759 mmHg 88%
    01:00 +27°C° 0 mm 1 m/s 759 mmHg 90%
    02:00 +27°C° 0 mm 1 m/s 758 mmHg 91%
    03:00 +27°C° 0 mm 1 m/s 758 mmHg 91%
    04:00 +27°C° 0 mm 1 m/s 758 mmHg 90%
    05:00 +27°C° 0 mm 1 m/s 758 mmHg 89%
    06:00 +27°C° 0 mm 1 m/s 758 mmHg 89%
    07:00 +27°C° 0 mm 1 m/s 759 mmHg 88%
    08:00 +29°C° 0 mm 1 m/s 759 mmHg 80%
    09:00 +31°C° 0 mm 1 m/s 758 mmHg 72%
    10:00 +33°C° 0 mm 1 m/s 758 mmHg 65%
    11:00 +34°C° 0 mm 2 m/s 758 mmHg 62%
    12:00 +35°C° 0 mm 2 m/s 757 mmHg 59%
    13:00 +35°C° 0 mm 3 m/s 757 mmHg 57%
    14:00 +35°C° 0.1 mm 3 m/s 757 mmHg 58%
    15:00 +34°C° 0.1 mm 3 m/s 756 mmHg 60%
    16:00 +33°C° 0 mm 3 m/s 756 mmHg 64%
    17:00 +31°C° 0 mm 3 m/s 757 mmHg 69%
    18:00 +30°C° 0 mm 2 m/s 757 mmHg 73%
    19:00 +29°C° 0 mm 2 m/s 757 mmHg 78%
    20:00 +28°C° 0 mm 2 m/s 758 mmHg 81%
    21:00 +28°C° 0 mm 2 m/s 758 mmHg 83%
    22:00 +28°C° 0 mm 2 m/s 759 mmHg 85%
    23:00 +28°C° 0 mm 1 m/s 759 mmHg 86%

    Mâine, 26 Mai, Duminică

    Timp Temperatura Precipitaţii Vânt Presiune Umiditate
    00:00 +28°C° 0 mm 1 m/s 759 mmHg 87%
    01:00 +27°C° 0 mm 1 m/s 758 mmHg 88%
    02:00 +27°C° 0 mm 1 m/s 758 mmHg 88%
    03:00 +27°C° 0 mm 1 m/s 758 mmHg 88%
    04:00 +27°C° 0 mm 1 m/s 758 mmHg 88%
    05:00 +27°C° 0.1 mm 1 m/s 758 mmHg 88%
    06:00 +27°C° 0.1 mm 1 m/s 759 mmHg 87%
    07:00 +27°C° 0.1 mm 1 m/s 759 mmHg 87%
    08:00 +29°C° 0.1 mm 1 m/s 759 mmHg 79%
    09:00 +31°C° 0.1 mm 1 m/s 759 mmHg 70%
    10:00 +33°C° 0.1 mm 1 m/s 759 mmHg 62%
    11:00 +33°C° 0.1 mm 1 m/s 758 mmHg 60%
    12:00 +34°C° 0.1 mm 2 m/s 758 mmHg 57%
    13:00 +35°C° 0.1 mm 3 m/s 757 mmHg 55%
    14:00 +34°C° 0 mm 2 m/s 757 mmHg 56%
    15:00 +34°C° 0 mm 2 m/s 756 mmHg 58%
    16:00 +32°C° 0 mm 2 m/s 756 mmHg 59%
    17:00 +31°C° 0 mm 2 m/s 757 mmHg 64%
    18:00 +30°C° 0 mm 1 m/s 757 mmHg 70%
    19:00 +28°C° 0 mm 1 m/s 758 mmHg 75%
    20:00 +28°C° 0 mm 1 m/s 758 mmHg 77%
    21:00 +28°C° 0 mm 1 m/s 759 mmHg 79%
    22:00 +28°C° 0 mm 1 m/s 759 mmHg 80%
    23:00 +28°C° 0 mm 1 m/s 759 mmHg 81%

    Poimâine, 27 Mai, Luni

    Timp Temperatura Precipitaţii Vânt Presiune Umiditate
    00:00 +28°C° 0 mm 1 m/s 759 mmHg 82%
    01:00 +27°C° 0 mm 1 m/s 759 mmHg 83%
    02:00 +27°C° 0 mm 1 m/s 758 mmHg 83%
    03:00 +27°C° 0 mm 1 m/s 758 mmHg 83%
    04:00 +27°C° 0 mm 1 m/s 758 mmHg 84%
    05:00 +27°C° 0.1 mm 1 m/s 758 mmHg 83%
    06:00 +27°C° 0.1 mm 1 m/s 758 mmHg 83%
    07:00 +27°C° 0.1 mm 1 m/s 759 mmHg 82%
    08:00 +29°C° 0 mm 1 m/s 759 mmHg 71%
    09:00 +32°C° 0 mm 1 m/s 759 mmHg 60%
    10:00 +34°C° 0 mm 1 m/s 759 mmHg 49%
    11:00 +34°C° 0 mm 1 m/s 758 mmHg 48%
    12:00 +35°C° 0 mm 2 m/s 757 mmHg 47%
    13:00 +35°C° 0 mm 3 m/s 757 mmHg 46%
    14:00 +35°C° 0 mm 3 m/s 756 mmHg 49%
    15:00 +34°C° 0 mm 3 m/s 756 mmHg 52%
    16:00 +34°C° 0 mm 3 m/s 756 mmHg 55%
    17:00 +31°C° 0 mm 3 m/s 756 mmHg 63%
    18:00 +30°C° 0 mm 2 m/s 757 mmHg 71%
    19:00 +28°C° 0 mm 2 m/s 757 mmHg 80%
    20:00 +28°C° 0 mm 2 m/s 758 mmHg 82%
    21:00 +28°C° 0 mm 1 m/s 758 mmHg 85%
    22:00 +28°C° 0 mm 1 m/s 759 mmHg 88%
    23:00 +27°C° 0.1 mm 1 m/s 759 mmHg 88%

    28 Mai, Marţi

    Timp Temperatura Precipitaţii Vânt Presiune Umiditate
    00:00 +27°C° 0.1 mm 1 m/s 758 mmHg 88%
    01:00 +27°C° 0.1 mm 1 m/s 758 mmHg 89%
    02:00 +27°C° 0.1 mm 1 m/s 758 mmHg 89%
    03:00 +27°C° 0.1 mm 1 m/s 758 mmHg 89%
    04:00 +27°C° 0.1 mm 1 m/s 757 mmHg 89%
    05:00 +27°C° 0 mm 1 m/s 758 mmHg 89%
    06:00 +27°C° 0 mm 1 m/s 758 mmHg 88%
    07:00 +27°C° 0 mm 1 m/s 759 mmHg 87%
    08:00 +29°C° 0 mm 1 m/s 759 mmHg 77%
    09:00 +31°C° 0 mm 1 m/s 759 mmHg 66%
    10:00 +31°C° 0 mm 0 m/s 759 mmHg 55%
    11:00 +34°C° 0 mm 1 m/s 758 mmHg 52%
    12:00 +35°C° 0 mm 2 m/s 757 mmHg 48%
    13:00 +36°C° 0 mm 3 m/s 757 mmHg 45%
    14:00 +35°C° 0 mm 3 m/s 756 mmHg 48%
    15:00 +34°C° 0 mm 3 m/s 756 mmHg 50%
    16:00 +33°C° 0 mm 3 m/s 756 mmHg 53%
    17:00 +31°C° 0 mm 3 m/s 756 mmHg 62%
    18:00 +30°C° 0 mm 3 m/s 757 mmHg 71%
    19:00 +28°C° 0 mm 2 m/s 757 mmHg 80%
    20:00 +28°C° 0 mm 2 m/s 758 mmHg 83%
    21:00 +28°C° 0 mm 2 m/s 759 mmHg 85%
    22:00 +28°C° 0 mm 1 m/s 759 mmHg 87%
    23:00 +28°C° 0 mm 1 m/s 759 mmHg 88%

    29 Mai, Miercuri

    Timp Temperatura Precipitaţii Vânt Presiune Umiditate
    00:00 +27°C° 0 mm 1 m/s 759 mmHg 88%
    01:00 +27°C° 0 mm 1 m/s 758 mmHg 88%
    02:00 +27°C° 0 mm 1 m/s 758 mmHg 89%
    03:00 +27°C° 0 mm 1 m/s 758 mmHg 89%
    04:00 +27°C° 0 mm 1 m/s 757 mmHg 90%
    05:00 +27°C° 0.1 mm 1 m/s 758 mmHg 89%
    06:00 +27°C° 0.1 mm 1 m/s 758 mmHg 89%
    07:00 +27°C° 0.1 mm 1 m/s 759 mmHg 88%
    08:00 +29°C° 0 mm 1 m/s 759 mmHg 77%
    09:00 +31°C° 0 mm 1 m/s 759 mmHg 67%
    10:00 +33°C° 0 mm 1 m/s 759 mmHg 56%
    11:00 +34°C° 0 mm 2 m/s 758 mmHg 53%
    12:00 +35°C° 0 mm 3 m/s 757 mmHg 50%
    13:00 +35°C° 0 mm 3 m/s 757 mmHg 47%
    14:00 +35°C° 0 mm 3 m/s 756 mmHg 50%
    15:00 +34°C° 0 mm 3 m/s 756 mmHg 54%
    16:00 +34°C° 0 mm 4 m/s 755 mmHg 57%
    17:00 +31°C° 0 mm 3 m/s 756 mmHg 65%
    18:00 +30°C° 0 mm 3 m/s 757 mmHg 73%
    19:00 +29°C° 0 mm 2 m/s 758 mmHg 81%
    20:00 +28°C° 0 mm 2 m/s 758 mmHg 83%
    21:00 +28°C° 0 mm 2 m/s 758 mmHg 86%
    22:00 +28°C° 0 mm 1 m/s 759 mmHg 88%
    23:00 +28°C° 0.1 mm 1 m/s 759 mmHg 88%

    30 Mai, Joi

    Timp Temperatura Precipitaţii Vânt Presiune Umiditate
    00:00 +27°C° 0.1 mm 1 m/s 758 mmHg 89%
    01:00 +27°C° 0.1 mm 1 m/s 758 mmHg 89%
    02:00 +27°C° 0 mm 1 m/s 758 mmHg 89%
    03:00 +27°C° 0 mm 1 m/s 758 mmHg 89%
    04:00 +27°C° 0 mm 1 m/s 758 mmHg 90%
    05:00 +27°C° 0 mm 1 m/s 758 mmHg 89%
    06:00 +27°C° 0 mm 1 m/s 758 mmHg 89%
    07:00 +27°C° 0 mm 1 m/s 759 mmHg 88%
    08:00 +29°C° 0 mm 1 m/s 759 mmHg 75%
    09:00 +32°C° 0 mm 1 m/s 759 mmHg 63%
    10:00 +32°C° 0 mm 0 m/s 759 mmHg 50%
    11:00 +34°C° 0 mm 1 m/s 758 mmHg 47%
    12:00 +36°C° 0 mm 2 m/s 757 mmHg 44%
    13:00 +36°C° 0 mm 3 m/s 757 mmHg 41%
    14:00 +36°C° 0 mm 3 m/s 756 mmHg 43%
    15:00 +35°C° 0 mm 3 m/s 756 mmHg 45%
    16:00 +34°C° 0 mm 3 m/s 755 mmHg 47%
    17:00 +31°C° 0 mm 2 m/s 756 mmHg 56%
    18:00 +30°C° 0 mm 2 m/s 757 mmHg 66%
    19:00 +28°C° 0 mm 1 m/s 758 mmHg 75%
    20:00 +28°C° 0 mm 1 m/s 758 mmHg 79%
    21:00 +28°C° 0 mm 1 m/s 758 mmHg 82%
    22:00 +27°C° 0 mm 1 m/s 759 mmHg 86%
    23:00 +27°C° 0.1 mm 1 m/s 759 mmHg 87%
    Arată mai mult